TOM8KX EGSS-LGKO

Flight info

Callsign TOM8KX
Flight time N/A
Altitude 37000
Route CLN M84 KONAN DCT KOK DCT DENOX DCT REMBA UL607 SPI DCT VIBOM DCT NOMBO DCT RIDAR DCT LATLO DCT OBEDI DCT CEPRA DCT PODET DCT LURID DCT VABEK UL603 OLOTA DCT RUGAS DCT GIKAS DCT MES UN139 LURUS L995 KOPAR
Aircraft B738/M-SDE2E3FGHIRWXY/LB1

Departure

Time N/A
Airport London Stansted Airport (EGSS)

Arrival

Time 2026-05-08 16:51
Airport Kos International Airport "Ippokratis" (LGKO)
Time Latitude Longitude Altitude Speed Heading
2026-05-08 14:29 49.22270 9.72394 37087 ft 472 kts 126°
2026-05-08 14:30 49.20474 9.76538 37105 ft 472 kts 126°
2026-05-08 14:30 49.16821 9.84946 37101 ft 472 kts 126°
2026-05-08 14:31 49.13178 9.93307 37102 ft 472 kts 126°
2026-05-08 14:31 49.09534 10.01648 37075 ft 472 kts 126°
2026-05-08 14:32 49.03532 10.13449 37092 ft 468 kts 138°
2026-05-08 14:32 48.98910 10.20321 37079 ft 468 kts 139°
2026-05-08 14:33 48.94251 10.27248 37100 ft 468 kts 138°
2026-05-08 14:33 48.89618 10.34213 37095 ft 469 kts 138°
2026-05-08 14:34 48.84990 10.41190 37102 ft 469 kts 138°
2026-05-08 14:34 48.80387 10.48110 37093 ft 469 kts 138°
2026-05-08 14:35 48.75744 10.55067 37085 ft 469 kts 139°
2026-05-08 14:35 48.71101 10.62005 37097 ft 469 kts 139°
2026-05-08 14:36 48.66449 10.68939 37087 ft 469 kts 139°
2026-05-08 14:36 48.61792 10.75862 37087 ft 469 kts 139°
2026-05-08 14:37 48.57424 10.83117 37069 ft 474 kts 127°
2026-05-08 14:37 48.53805 10.91462 37068 ft 475 kts 126°
2026-05-08 14:38 48.50228 10.99841 37078 ft 475 kts 126°
2026-05-08 14:38 48.46613 11.08175 37069 ft 475 kts 127°
2026-05-08 14:39 48.42988 11.16430 37075 ft 475 kts 127°
2026-05-08 14:39 48.39329 11.24718 37064 ft 476 kts 127°
2026-05-08 14:40 48.35662 11.32999 37058 ft 476 kts 127°
2026-05-08 14:40 48.31991 11.41270 37073 ft 475 kts 127°
2026-05-08 14:41 48.28318 11.49521 37062 ft 475 kts 127°
2026-05-08 14:41 48.24661 11.57711 37065 ft 475 kts 128°
2026-05-08 14:42 48.20975 11.65940 37062 ft 475 kts 128°
2026-05-08 14:42 48.17287 11.74149 37067 ft 475 kts 128°
2026-05-08 14:43 48.13592 11.82347 37060 ft 475 kts 128°
2026-05-08 14:43 48.09917 11.90480 37047 ft 475 kts 128°
2026-05-08 14:44 48.06214 11.98648 37047 ft 475 kts 128°
2026-05-08 14:44 48.02501 12.06813 37034 ft 475 kts 128°
2026-05-08 14:45 47.98786 12.14960 37027 ft 475 kts 129°
2026-05-08 14:45 47.95063 12.23099 37036 ft 475 kts 129°
2026-05-08 14:46 47.91359 12.31171 37036 ft 475 kts 129°
2026-05-08 14:46 47.87623 12.39291 37033 ft 475 kts 129°
2026-05-08 14:47 47.83875 12.47411 37042 ft 478 kts 129°
2026-05-08 14:47 47.80073 12.55621 37048 ft 485 kts 129°
2026-05-08 14:48 47.76226 12.63910 37043 ft 489 kts 129°
2026-05-08 14:48 47.72388 12.72160 37007 ft 487 kts 129°
2026-05-08 14:49 47.68524 12.80368 37025 ft 482 kts 132°
2026-05-08 14:49 47.63979 12.87495 37062 ft 475 kts 140°
2026-05-08 14:50 47.59235 12.94331 37039 ft 476 kts 140°
2026-05-08 14:50 47.54552 13.01160 37048 ft 475 kts 140°
2026-05-08 14:51 47.49859 13.08054 37033 ft 476 kts 140°
2026-05-08 14:51 47.45157 13.14954 37030 ft 476 kts 140°
2026-05-08 14:52 47.38085 13.25298 37034 ft 478 kts 140°
2026-05-08 14:53 47.33391 13.32153 37022 ft 479 kts 139°
2026-05-08 14:53 47.29203 13.39883 37013 ft 486 kts 130°
2026-05-08 14:54 47.25299 13.48023 37011 ft 487 kts 129°
2026-05-08 14:54 47.21389 13.56118 37045 ft 485 kts 130°
2026-05-08 14:55 47.17422 13.64177 37031 ft 487 kts 130°
2026-05-08 14:55 47.13451 13.72167 37020 ft 487 kts 131°
2026-05-08 14:56 47.09447 13.80196 37031 ft 487 kts 131°
2026-05-08 14:56 47.05438 13.88216 37020 ft 487 kts 131°
2026-05-08 14:57 47.01473 13.96286 37003 ft 489 kts 130°
2026-05-08 14:57 46.97456 14.04294 37037 ft 487 kts 131°
2026-05-08 14:58 46.93422 14.12179 37025 ft 487 kts 131°
2026-05-08 14:58 46.89382 14.20120 37018 ft 485 kts 131°
2026-05-08 14:59 46.85367 14.28036 37015 ft 484 kts 131°
2026-05-08 14:59 46.79356 14.39859 37010 ft 483 kts 131°
2026-05-08 15:00 46.75372 14.47665 37030 ft 483 kts 131°
2026-05-08 15:00 46.71351 14.55522 37019 ft 484 kts 131°
2026-05-08 15:01 46.67317 14.63375 37030 ft 484 kts 131°
2026-05-08 15:01 46.63280 14.71217 37022 ft 484 kts 131°
2026-05-08 15:02 46.59242 14.79040 37027 ft 483 kts 131°
2026-05-08 15:02 46.55202 14.86844 37037 ft 483 kts 131°
2026-05-08 15:03 46.51189 14.94573 37042 ft 483 kts 131°
2026-05-08 15:03 46.47130 15.02369 37028 ft 485 kts 131°
2026-05-08 15:04 46.43068 15.10153 37020 ft 484 kts 131°
2026-05-08 15:04 46.39007 15.17916 37035 ft 483 kts 131°
2026-05-08 15:05 46.35003 15.25752 37023 ft 485 kts 129°
2026-05-08 15:05 46.31183 15.33731 37030 ft 486 kts 129°
2026-05-08 15:06 46.27331 15.41754 37031 ft 485 kts 129°
2026-05-08 15:06 46.23449 15.49729 37033 ft 485 kts 129°
2026-05-08 15:07 46.19560 15.57678 37032 ft 485 kts 129°
2026-05-08 15:07 46.15597 15.65554 37031 ft 483 kts 132°
2026-05-08 15:08 46.12082 15.71799 37036 ft 482 kts 134°
2026-05-08 15:08 46.07046 15.80467 37012 ft 483 kts 134°
2026-05-08 15:09 46.02761 15.87893 37026 ft 482 kts 134°
2026-05-08 15:09 45.98492 15.95341 37028 ft 482 kts 134°
2026-05-08 15:10 45.94229 16.02776 37012 ft 482 kts 134°
2026-05-08 15:10 45.89988 16.10155 37016 ft 482 kts 134°
2026-05-08 15:11 45.85713 16.17569 37027 ft 482 kts 134°
2026-05-08 15:11 45.81429 16.24976 37024 ft 482 kts 134°
2026-05-08 15:12 45.77142 16.32369 37011 ft 482 kts 134°
2026-05-08 15:12 45.72855 16.39743 37025 ft 482 kts 134°
2026-05-08 15:13 45.68567 16.47099 37031 ft 481 kts 134°
2026-05-08 15:13 45.64298 16.54403 37030 ft 481 kts 134°
2026-05-08 15:14 45.60001 16.61737 37019 ft 481 kts 134°
2026-05-08 15:14 45.55705 16.69049 37038 ft 481 kts 134°
2026-05-08 15:15 45.51409 16.76343 37036 ft 480 kts 134°
2026-05-08 15:15 45.47107 16.83626 37039 ft 480 kts 134°
2026-05-08 15:16 45.42805 16.90891 37021 ft 480 kts 134°
2026-05-08 15:16 45.38529 16.98096 37032 ft 480 kts 134°
2026-05-08 15:17 45.34216 17.05342 37033 ft 480 kts 134°
2026-05-08 15:17 45.29901 17.12574 37026 ft 480 kts 134°
2026-05-08 15:18 45.25580 17.19797 37020 ft 480 kts 134°
2026-05-08 15:18 45.21260 17.27002 37023 ft 479 kts 134°
2026-05-08 15:19 45.16967 17.34144 37030 ft 479 kts 134°
2026-05-08 15:19 45.12642 17.41310 37025 ft 478 kts 135°
2026-05-08 15:20 45.08246 17.48371 37021 ft 478 kts 135°
2026-05-08 15:20 45.03825 17.55371 37012 ft 477 kts 135°
2026-05-08 15:21 44.99443 17.62311 37021 ft 476 kts 135°
2026-05-08 15:21 44.95039 17.69291 37014 ft 476 kts 135°
2026-05-08 15:22 44.90632 17.76268 37018 ft 476 kts 135°
2026-05-08 15:22 44.86228 17.83223 37019 ft 475 kts 135°
2026-05-08 15:23 44.81819 17.90167 37017 ft 475 kts 135°
2026-05-08 15:23 44.77438 17.97049 37019 ft 475 kts 135°
2026-05-08 15:24 44.73026 18.03963 37015 ft 475 kts 135°
2026-05-08 15:24 44.68610 18.10865 37016 ft 475 kts 135°
2026-05-08 15:25 44.64187 18.17763 37029 ft 475 kts 135°
2026-05-08 15:25 44.59776 18.24624 37022 ft 477 kts 135°
2026-05-08 15:26 44.55332 18.31520 37019 ft 476 kts 135°
2026-05-08 15:26 44.50890 18.38398 37016 ft 475 kts 135°
2026-05-08 15:27 44.46455 18.45246 37022 ft 474 kts 135°
2026-05-08 15:27 44.42046 18.52037 37014 ft 475 kts 135°
2026-05-08 15:28 44.37602 18.58866 37026 ft 474 kts 135°
2026-05-08 15:28 44.33156 18.65681 37017 ft 474 kts 135°
2026-05-08 15:29 44.28710 18.72481 37019 ft 474 kts 136°
2026-05-08 15:29 44.24253 18.79280 37023 ft 475 kts 136°
2026-05-08 15:30 44.19819 18.86027 37011 ft 475 kts 136°
2026-05-08 15:30 44.15349 18.92814 37018 ft 475 kts 135°
2026-05-08 15:31 44.10875 18.99589 37023 ft 476 kts 136°
2026-05-08 15:31 44.06391 19.06365 37016 ft 476 kts 136°
2026-05-08 15:32 44.01903 19.13130 37016 ft 476 kts 136°
2026-05-08 15:32 43.97445 19.19833 37009 ft 475 kts 136°
2026-05-08 15:33 43.92957 19.26565 37007 ft 475 kts 136°
2026-05-08 15:33 43.88468 19.33283 37012 ft 475 kts 136°
2026-05-08 15:34 43.83967 19.40002 37011 ft 476 kts 136°
2026-05-08 15:34 43.79454 19.46724 36999 ft 477 kts 136°
2026-05-08 15:35 43.74965 19.53393 37009 ft 477 kts 136°
2026-05-08 15:35 43.70436 19.60108 37008 ft 477 kts 136°
2026-05-08 15:36 43.66671 19.65676 37007 ft 477 kts 136°
2026-05-08 15:36 43.61375 19.73492 37005 ft 477 kts 136°
2026-05-08 15:37 43.56859 19.80139 37017 ft 478 kts 136°
2026-05-08 15:37 43.52310 19.86818 37019 ft 478 kts 136°
2026-05-08 15:38 43.47751 19.93496 37016 ft 478 kts 136°
2026-05-08 15:38 43.43192 20.00159 37027 ft 478 kts 136°
2026-05-08 15:39 43.38651 20.06780 37018 ft 479 kts 136°
2026-05-08 15:39 43.34075 20.13437 37030 ft 479 kts 136°
2026-05-08 15:40 43.29488 20.20093 37031 ft 481 kts 136°
2026-05-08 15:40 43.24899 20.26738 37026 ft 477 kts 136°
2026-05-08 15:41 43.20372 20.33279 37023 ft 477 kts 136°
2026-05-08 15:41 43.15800 20.39868 37031 ft 477 kts 136°
2026-05-08 15:42 43.11226 20.46445 37026 ft 477 kts 136°
2026-05-08 15:42 43.06642 20.53022 37032 ft 478 kts 136°
2026-05-08 15:43 43.02043 20.59607 37033 ft 479 kts 136°
2026-05-08 15:43 42.97414 20.66065 37039 ft 479 kts 138°
2026-05-08 15:44 42.92581 20.72330 37035 ft 480 kts 139°
2026-05-08 15:44 42.87718 20.78578 37034 ft 481 kts 139°
2026-05-08 15:45 42.82871 20.84854 37033 ft 480 kts 139°
2026-05-08 15:45 42.78075 20.91086 37046 ft 480 kts 139°
2026-05-08 15:46 42.73246 20.97353 37049 ft 480 kts 139°
2026-05-08 15:46 42.68410 21.03614 37060 ft 481 kts 139°
2026-05-08 15:47 42.63556 21.09879 37043 ft 481 kts 139°
2026-05-08 15:47 42.58745 21.16077 37038 ft 478 kts 139°
2026-05-08 15:48 42.51515 21.25364 37040 ft 477 kts 139°
2026-05-08 15:49 42.46700 21.31532 37038 ft 476 kts 139°
2026-05-08 15:49 42.41879 21.37693 37043 ft 477 kts 139°
2026-05-08 15:50 42.37053 21.43848 37027 ft 477 kts 139°
2026-05-08 15:50 42.32253 21.49957 37028 ft 477 kts 139°
2026-05-08 15:51 42.27414 21.56104 37029 ft 477 kts 139°
2026-05-08 15:51 42.23387 21.61207 37020 ft 478 kts 139°
2026-05-08 15:52 42.18606 21.67429 37019 ft 478 kts 137°
2026-05-08 15:52 42.13113 21.74767 37028 ft 478 kts 137°
2026-05-08 15:53 42.08384 21.81059 37005 ft 478 kts 138°
2026-05-08 15:53 42.04437 21.86278 37019 ft 479 kts 138°
2026-05-08 15:54 41.99681 21.92543 37031 ft 479 kts 138°
2026-05-08 15:54 41.94912 21.98810 37018 ft 480 kts 138°
2026-05-08 15:55 41.90135 22.05075 37027 ft 480 kts 138°
2026-05-08 15:55 41.82960 22.14460 37026 ft 481 kts 138°
2026-05-08 15:56 41.78188 22.20684 37038 ft 483 kts 138°
2026-05-08 15:56 41.73366 22.26960 37027 ft 483 kts 138°
2026-05-08 15:57 41.68562 22.33200 37029 ft 480 kts 138°
2026-05-08 15:57 41.63768 22.39412 37032 ft 479 kts 138°
2026-05-08 15:58 41.59010 22.45565 37017 ft 479 kts 138°
2026-05-08 15:58 41.54221 22.51743 37041 ft 479 kts 138°
2026-05-08 15:59 41.49429 22.57915 37048 ft 479 kts 139°
2026-05-08 15:59 41.44626 22.64086 37055 ft 480 kts 138°
2026-05-08 16:00 41.39837 22.70225 37055 ft 481 kts 138°
2026-05-08 16:00 41.35010 22.76402 37062 ft 482 kts 138°
2026-05-08 16:01 41.30046 22.82377 37060 ft 481 kts 143°
2026-05-08 16:01 41.24798 22.87889 37056 ft 481 kts 145°
2026-05-08 16:02 41.19513 22.93341 37062 ft 481 kts 144°
2026-05-08 16:02 41.14250 22.98837 37067 ft 481 kts 144°
2026-05-08 16:03 41.09045 23.04315 37065 ft 482 kts 144°
2026-05-08 16:03 41.03794 23.09843 37051 ft 482 kts 144°
2026-05-08 16:04 40.98545 23.15357 37061 ft 482 kts 144°
2026-05-08 16:04 40.93288 23.20864 37069 ft 483 kts 144°
2026-05-08 16:05 40.88015 23.26374 37065 ft 483 kts 144°
2026-05-08 16:05 40.82744 23.31872 37069 ft 484 kts 145°
2026-05-08 16:06 40.77453 23.37380 37047 ft 484 kts 145°
2026-05-08 16:06 40.72189 23.42848 37059 ft 485 kts 145°
2026-05-08 16:07 40.66876 23.48354 37060 ft 486 kts 146°
2026-05-08 16:07 40.61554 23.53859 37053 ft 487 kts 146°
2026-05-08 16:08 40.56227 23.59359 37059 ft 486 kts 146°
2026-05-08 16:08 40.50901 23.64846 37046 ft 487 kts 146°
2026-05-08 16:09 40.45565 23.70330 37054 ft 488 kts 146°
2026-05-08 16:09 40.40256 23.75776 37048 ft 488 kts 147°
2026-05-08 16:10 40.34905 23.81255 37066 ft 488 kts 147°
2026-05-08 16:10 40.29553 23.86723 37064 ft 488 kts 147°
2026-05-08 16:11 40.24199 23.92181 37062 ft 488 kts 147°
2026-05-08 16:11 40.18841 23.97632 37058 ft 488 kts 147°
2026-05-08 16:12 40.13484 24.03072 37055 ft 488 kts 147°
2026-05-08 16:12 40.08128 24.08498 37046 ft 487 kts 147°
2026-05-08 16:13 40.02806 24.13880 37054 ft 487 kts 147°
2026-05-08 16:13 39.97444 24.19290 37043 ft 488 kts 147°
2026-05-08 16:14 39.92067 24.24705 37058 ft 489 kts 147°
2026-05-08 16:14 39.86676 24.30123 37050 ft 490 kts 147°
2026-05-08 16:15 39.81275 24.35541 37050 ft 491 kts 147°
2026-05-08 16:15 39.75901 24.40920 37037 ft 491 kts 147°
2026-05-08 16:16 39.70486 24.46330 37041 ft 491 kts 148°
2026-05-08 16:16 39.65060 24.51738 37057 ft 492 kts 148°
2026-05-08 16:17 39.59615 24.57156 37045 ft 494 kts 148°
2026-05-08 16:17 39.54165 24.62570 37050 ft 494 kts 148°
2026-05-08 16:18 39.48716 24.67977 37049 ft 494 kts 148°
2026-05-08 16:18 39.43301 24.73448 37044 ft 494 kts 148°
2026-05-08 16:19 39.37938 24.78900 37054 ft 494 kts 148°
2026-05-08 16:19 39.32528 24.84380 37052 ft 494 kts 148°
2026-05-08 16:20 39.27115 24.89841 37051 ft 494 kts 148°
2026-05-08 16:20 39.21694 24.95294 37052 ft 494 kts 148°
2026-05-08 16:21 39.16314 25.00696 37046 ft 493 kts 148°
2026-05-08 16:21 39.10901 25.06121 37053 ft 492 kts 148°
2026-05-08 16:22 39.05496 25.11525 37052 ft 492 kts 148°
2026-05-08 16:22 39.00080 25.16931 37058 ft 493 kts 148°
2026-05-08 16:23 38.94661 25.22329 37060 ft 493 kts 148°
2026-05-08 16:23 38.89239 25.27719 37059 ft 493 kts 148°
2026-05-08 16:24 38.83843 25.33073 37049 ft 494 kts 148°
2026-05-08 16:24 38.78396 25.38467 37059 ft 495 kts 148°
2026-05-08 16:25 38.72946 25.43854 37065 ft 495 kts 148°
2026-05-08 16:25 38.67486 25.49240 37063 ft 495 kts 148°
2026-05-08 16:26 38.62022 25.54619 37069 ft 496 kts 148°
2026-05-08 16:26 38.56534 25.60009 37080 ft 498 kts 148°
2026-05-08 16:27 38.51072 25.65366 37064 ft 499 kts 148°
2026-05-08 16:27 38.45562 25.70759 37075 ft 499 kts 148°
2026-05-08 16:28 38.40044 25.76149 37076 ft 500 kts 148°
2026-05-08 16:28 38.34512 25.81543 37074 ft 501 kts 148°
2026-05-08 16:29 38.28974 25.86933 37081 ft 501 kts 148°
2026-05-08 16:29 38.23153 25.91645 37077 ft 490 kts 163°
2026-05-08 16:30 38.16851 25.94532 37081 ft 484 kts 168°
2026-05-08 16:30 38.10478 25.97315 37081 ft 485 kts 167°
2026-05-08 16:31 38.04107 26.00167 37087 ft 486 kts 167°
2026-05-08 16:31 37.97727 26.03057 37093 ft 487 kts 167°
2026-05-08 16:32 37.91407 26.05926 36845 ft 470 kts 167°
2026-05-08 16:32 37.88367 26.07306 36220 ft 459 kts 167°
2026-05-08 16:32 37.85371 26.08656 35383 ft 456 kts 167°
2026-05-08 16:33 37.82367 26.10001 34252 ft 461 kts 168°
2026-05-08 16:33 37.79377 26.11339 33152 ft 462 kts 167°
2026-05-08 16:33 37.76354 26.12699 32243 ft 459 kts 167°
2026-05-08 16:33 37.73367 26.14046 31462 ft 453 kts 167°
2026-05-08 16:34 37.70417 26.15380 30705 ft 448 kts 167°
2026-05-08 16:34 37.67487 26.16702 29507 ft 450 kts 167°
2026-05-08 16:34 37.64512 26.18038 28037 ft 457 kts 166°
2026-05-08 16:34 37.61505 26.19388 26651 ft 460 kts 166°
2026-05-08 16:35 37.58486 26.20744 25364 ft 461 kts 166°
2026-05-08 16:35 37.55471 26.22102 24112 ft 460 kts 165°
2026-05-08 16:35 37.52466 26.23456 22801 ft 457 kts 165°
2026-05-08 16:35 37.49484 26.24799 21484 ft 453 kts 165°
2026-05-08 16:36 37.46534 26.26125 20252 ft 448 kts 165°
2026-05-08 16:36 37.43610 26.27437 19079 ft 444 kts 164°
2026-05-08 16:36 37.40719 26.28732 17903 ft 438 kts 164°
2026-05-08 16:36 37.37877 26.30002 17116 ft 435 kts 164°
2026-05-08 16:37 37.35078 26.31257 16426 ft 423 kts 164°
2026-05-08 16:37 37.32314 26.32491 15779 ft 419 kts 164°
2026-05-08 16:37 37.29584 26.33709 15143 ft 415 kts 165°
2026-05-08 16:37 37.26873 26.34917 14489 ft 412 kts 165°
2026-05-08 16:38 37.24178 26.36118 13836 ft 409 kts 165°
2026-05-08 16:38 37.21509 26.37306 13135 ft 406 kts 165°
2026-05-08 16:38 37.18860 26.38484 12576 ft 400 kts 165°
2026-05-08 16:38 37.16263 26.39636 12007 ft 394 kts 165°
2026-05-08 16:39 37.13724 26.40759 11416 ft 388 kts 165°
2026-05-08 16:39 37.11196 26.41878 11055 ft 379 kts 165°
2026-05-08 16:39 37.08786 26.42948 10876 ft 355 kts 165°
2026-05-08 16:39 37.06526 26.43951 10666 ft 339 kts 165°
2026-05-08 16:40 37.04284 26.44935 10322 ft 345 kts 165°
2026-05-08 16:40 37.01998 26.45936 9980 ft 350 kts 165°
2026-05-08 16:40 36.99688 26.46949 9370 ft 356 kts 165°
2026-05-08 16:40 36.97363 26.47973 8596 ft 351 kts 165°
2026-05-08 16:41 36.95080 26.48981 7870 ft 344 kts 164°
2026-05-08 16:41 36.92865 26.49958 7352 ft 332 kts 164°
2026-05-08 16:41 36.90728 26.50929 6846 ft 322 kts 159°
2026-05-08 16:42 36.87731 26.54880 5664 ft 318 kts 115°
2026-05-08 16:42 36.86882 26.57385 5264 ft 306 kts 114°
2026-05-08 16:42 36.86107 26.59746 5147 ft 293 kts 114°
2026-05-08 16:42 36.85338 26.62056 5034 ft 283 kts 115°
2026-05-08 16:43 36.84575 26.64307 5004 ft 280 kts 115°
2026-05-08 16:43 36.83812 26.66532 5000 ft 277 kts 115°
2026-05-08 16:43 36.83051 26.68747 5004 ft 279 kts 115°
2026-05-08 16:43 36.82616 26.71106 4995 ft 284 kts 88°
2026-05-08 16:44 36.83179 26.73446 5017 ft 284 kts 59°
2026-05-08 16:44 36.84406 26.75367 5023 ft 284 kts 45°
2026-05-08 16:44 36.85790 26.77117 4972 ft 280 kts 44°
2026-05-08 16:44 36.87146 26.78825 4742 ft 276 kts 45°
2026-05-08 16:45 36.88461 26.80507 4494 ft 273 kts 46°
2026-05-08 16:45 36.89771 26.82201 4242 ft 270 kts 46°
2026-05-08 16:45 36.91077 26.83899 4076 ft 276 kts 46°
2026-05-08 16:45 36.92329 26.85785 3900 ft 287 kts 56°
2026-05-08 16:46 36.93420 26.87894 3663 ft 290 kts 59°
2026-05-08 16:46 36.94471 26.89958 3529 ft 272 kts 59°
2026-05-08 16:46 36.95430 26.91888 3516 ft 250 kts 65°
2026-05-08 16:46 36.95765 26.93905 3495 ft 232 kts 97°
2026-05-08 16:47 36.95325 26.95831 3516 ft 232 kts 120°
2026-05-08 16:47 36.94298 26.97344 3538 ft 227 kts 141°
2026-05-08 16:47 36.93039 26.98520 3446 ft 227 kts 147°
2026-05-08 16:47 36.91701 26.99598 3143 ft 227 kts 148°
2026-05-08 16:48 36.90397 27.00610 2843 ft 213 kts 149°
2026-05-08 16:48 36.89173 27.01558 2555 ft 201 kts 149°
2026-05-08 16:48 36.88012 27.02460 2286 ft 192 kts 149°
2026-05-08 16:48 36.86938 27.03295 2046 ft 176 kts 149°
2026-05-08 16:49 36.85963 27.04053 1831 ft 155 kts 149°
2026-05-08 16:49 36.85086 27.04735 1606 ft 142 kts 149°
2026-05-08 16:49 36.84253 27.05381 1417 ft 140 kts 149°
2026-05-08 16:49 36.83404 27.06025 1252 ft 144 kts 149°
2026-05-08 16:50 36.82549 27.06697 1009 ft 144 kts 148°
2026-05-08 16:50 36.81719 27.07352 812 ft 139 kts 148°
2026-05-08 16:50 36.80901 27.07991 591 ft 140 kts 148°
2026-05-08 16:50 36.80094 27.08623 439 ft 131 kts 149°
2026-05-08 16:51 36.79445 27.09125 441 ft 80 kts 148°
2026-05-08 16:51 36.79142 27.09360 434 ft 32 kts 148°
2026-05-08 16:51 36.79054 27.09448 431 ft 7 kts 176°
2026-05-08 16:51 36.79046 27.09413 434 ft 5 kts 320°
2026-05-08 16:52 36.79140 27.09354 432 ft 30 kts 331°
2026-05-08 16:52 36.79376 27.09178 436 ft 42 kts 329°
2026-05-08 16:52 36.79628 27.09005 439 ft 40 kts 345°
2026-05-08 16:52 36.79757 27.08990 429 ft 14 kts 357°
2026-05-08 16:53 36.79952 27.08965 440 ft 14 kts 330°
2026-05-08 16:53 36.80035 27.08905 439 ft 13 kts 330°
2026-05-08 16:53 36.80094 27.08915 444 ft 7 kts 57°
2026-05-08 16:54 36.80107 27.08941 440 ft 0 kts 57°